Terminal Aerodrome Forecast
Issued by NWS

Home | Current Version | Previous Version | Text Only | Print | Product List | Glossary On
Versions: 1 2 3 4 5 6 7 8 9 10 11 12 13 14 15 16 17 18 19 20 21 22
000
FTUS41 KRLX 060200 AAA
TAFCKB
TAF AMD
KCKB 060231Z 0603/0624 33005KT 6SM BR BKN020
     FM060400 33004KT P6SM SCT025
     FM061500 22004KT P6SM FEW020
     FM062200 VRB03KT P6SM FEW080
      AMD NOT SKED=

USA.gov is the U.S. government's official web portal to all federal, state and local government web resources and services.